Flag for Turkmenistan Weather past 2 weeks in Ashgabat, Turkmenistan

Now
90 °F

Passing clouds.


Feels Like: 86 °F
Forecast: 70 / 90 °F
Wind: 3 mph from Northwest

Location: Ashgabat

Current Time: Sep 3, 2015 at 3:56:22 PM

Latest Report: Sep 3, 2015 at 3:00 PM


Visibility: N/A

Pressure: 30.01 "Hg

Humidity: 18%

Dew point: 41 °F

Location of AshgabatLocation

Historic Weather in Ashgabat — Graph

°F

Ashgabat temperature yesterday

Maximum temperature yesterday: 86 °F (at 2:00 PM)
Minimum temperature yesterday: 72 °F (at 7:00 AM)
Average temperature yesterday: 78 °F

Past Weeks' High & Low Weather Summary

 TemperatureHumidityPressure
High108 °F (Aug 19, 5:00 PM)64% (Aug 26, 6:00 AM)30.15 "Hg (Aug 26, 6:00 AM)
Low61 °F (Aug 29, 7:00 AM)9% (Aug 20, 6:00 PM)29.62 "Hg (Aug 25, 2:00 AM)
Average82 °F28%29.93 "Hg
* Reported Aug 19 2:00 PM — Sep 3 2:00 PM, Ashgabat, Weather by CustomWeather, © 2015

Note: Actual official high and low records may vary slightly from our data, if they occured in-between our weather recording intervals... More about our weather records

Advertising

Ashgabat weather history for previous 24 hours

 ConditionsComfort  
Time TempWeatherWind HumidityBarometerVisibility
2:00 PM
Thu, Sep 3
88 °FPassing clouds.6 mph21%30.01 "HgN/A
1:00 PM88 °FPassing clouds.6 mph21%30.04 "HgN/A
12:00 PM84 °FPassing clouds.8 mph25%30.04 "HgN/A
11:00 AM82 °FPassing clouds.8 mph28%30.04 "HgN/A
10:00 AM79 °FPassing clouds.10 mph32%30.04 "HgN/A
9:00 AM77 °FPassing clouds.10 mph34%30.04 "HgN/A
8:00 AM73 °FPassing clouds.6 mph33%30.04 "HgN/A
7:00 AM66 °FPassing clouds.3 mph46%30.01 "HgN/A
6:00 AM64 °FClear.3 mph49%30.01 "HgN/A
5:00 AM66 °FClear.1 mph46%30.01 "HgN/A
4:00 AM70 °FClear.6 mph38%30.01 "HgN/A
2:30 AM70 °FClear.6 mph33%30.01 "HgN/A
2:00 AM72 °FClear.6 mph29%30.01 "HgN/A
1:30 AM72 °FClear.8 mph29%30.04 "HgN/A
1:00 AM70 °FClear.8 mph35%30.04 "HgN/A
12:00 AM68 °FClear.8 mph43%30.04 "Hg4 mi
11:00 PM
Wed, Sep 2
75 °FPassing clouds.3 mph31%30.07 "HgN/A
10:00 PM77 °FPassing clouds.3 mph28%30.07 "HgN/A
9:00 PM73 °FPassing clouds.6 mph31%30.04 "HgN/A
8:00 PM77 °FPassing clouds.6 mph30%30.04 "HgN/A
7:00 PM81 °FPassing clouds.8 mph26%30.01 "HgN/A
6:00 PM84 °FPassing clouds.15 mph22%30.01 "HgN/A
5:00 PM86 °FPassing clouds.17 mph20%30.01 "HgN/A
4:00 PM86 °FPassing clouds.20 mph19%30.01 "HgN/A
3:00 PM86 °FScattered clouds.17 mph20%30.01 "HgN/A
Weather by CustomWeather, © 2015

See weather overviewHow to use our weather pages